[[{"header":{"parameterUnit":"m.s-1","parameterCategory":1,"la1":30.2992,"la2":30.254,"lo1":-89.0895,"lo2":-89.0443,"dy":0.0025,"dx":0.0025,"nx":19,"ny":19,"refTime":"2026-03-12T03:00:00:Z","depth":0,"parameterNumber":2,"parameterNumberName":"U-component_of_WINDS"},"data":[0,0,0,-2.0516,-2.0517,-2.0558,-2.0558,-2.0617,-2.0618,0,0,0,0,0,0,0,0,0,0,0,-2.0507,-2.0508,-2.0516,-2.0517,-2.0558,-2.0558,-2.0617,-2.0618,0,0,0,0,0,0,0,0,0,0,0,-2.0507,-2.0508,-2.0508,-2.0517,-2.0558,-2.0558,-2.0617,-2.0584,0,0,0,0,0,0,0,0,0,0,-2.0543,-2.0538,-2.0508,-2.0508,-2.0517,-2.0557,-2.0558,-2.0582,-2.0586,-2.0602,0,-2.0616,0,-2.0618,-2.0622,-2.0622,0,0,0,-2.0515,-2.0535,-2.0543,-2.0508,-2.0518,-2.0557,-2.0539,-2.0584,-2.0588,-2.0607,-2.0616,-2.0618,-2.0619,-2.0622,-2.0623,-2.072,-2.072,0,0,-2.0512,-2.0516,-2.054,-2.0546,-2.0539,-2.0537,-2.054,-2.0587,-2.0598,-2.0616,-2.062,-2.062,-2.0623,-2.0623,-2.0719,-2.072,0,0,0,-2.0508,-2.0515,-2.0522,-2.0544,-2.055,-2.0539,-2.0541,-2.0596,-2.0597,-2.062,-2.062,-2.0623,-2.0624,-2.0719,-2.0719,-2.075,0,0,0,-2.0506,-2.0512,-2.0521,-2.0524,-2.055,-2.0573,-2.055,-2.0594,-2.0599,-2.062,-2.0623,-2.0625,-2.0718,-2.0719,-2.0748,-2.0763,0,0,0,-2.0504,-2.0512,-2.0519,-2.0524,-2.0541,-2.0572,-2.0577,-2.0595,-2.06,-2.0622,-2.0625,-2.0717,-2.0719,-2.0746,-2.076,-2.0789,0,0,0,-2.0502,-2.0545,-2.0519,-2.0569,-2.0541,-2.0591,-2.0576,-2.0614,-2.0637,-2.0624,-2.0718,-2.0719,-2.0745,-2.0758,-2.0787,-2.0812,-2.0824,0,0,-2.0559,-2.0552,-2.0581,-2.0559,-2.0614,-2.0585,-2.0646,-2.0663,-2.0663,-2.0701,-2.0703,-2.0748,-2.0759,-2.0788,-2.0891,-2.09,0,0,0,-2.0601,-2.0621,-2.0635,-2.0657,-2.0672,-2.0686,-2.0695,-2.0702,-2.0734,-2.0683,-2.0768,-2.0774,-2.0791,-2.0803,-2.0811,-2.0825,-2.0726,-2.0725,-2.0725,-2.0685,-2.0682,-2.0729,-2.0732,-2.0754,-2.0763,-2.0781,-2.0792,-2.0782,-2.0803,-2.0813,-2.0876,-2.089,-2.0896,-2.091,-2.0828,-2.0829,-2.0829,-2.0829,-2.0767,-2.0795,-2.0783,-2.0824,-2.0821,-2.0856,-2.0868,-2.086,-2.0893,-2.0867,-2.0882,-2.0852,-2.0906,-2.0919,-2.0831,-2.0831,-2.083,-2.083,-2.083,-2.082,-2.0833,-2.0842,-2.0874,-2.0901,-2.0903,-2.0935,-2.0932,-2.0929,-2.0944,-2.0954,-2.0954,-2.0952,-2.095,-2.095,-2.095,-2.095,-2.095,-2.0951,-2.0871,-2.088,-2.0906,-2.0928,-2.0942,-2.0962,-2.0974,-2.0988,-2.1004,-2.0999,-2.0999,-2.0987,-2.0913,-2.0893,-2.0954,-2.0953,-2.0953,-2.0953,-2.0952,-2.0951,-2.0933,-2.0974,-2.0989,-2.1015,-2.1041,-2.1038,-2.1069,-2.1081,-2.1097,-2.1084,-2.103,-2.1022,-2.1016,-2.0999,-2.1085,-2.1085,-2.1085,-2.1085,-2.0994,-2.0992,-2.1033,-2.1057,-2.1081,-2.1083,-2.1131,-2.1142,-2.115,-2.1158,-2.1146,-2.1125,-2.1119,-2.1115,-2.1107,-2.1091,-2.1198,-2.1198,-2.1198,-2.1043,-2.1043,-2.1083,-2.109,-2.1111,-2.1129,-2.1174,-2.1203,-2.121,-2.1202,-2.1164,-2.1159,-2.1125,-2.1114,-2.1102,-2.1089,-2.1061,0,0]},{"header":{"parameterUnit":"m.s-1","parameterCategory":1,"la1":30.2992,"la2":30.254,"lo1":-89.0895,"lo2":-89.0443,"dy":0.0025,"dx":0.0025,"nx":19,"ny":19,"refTime":"2026-03-12T03:00:00:Z","depth":0,"parameterNumber":3,"parameterNumberName":"V-component_of_WINDS"},"data":[0,0,0,2.2768,2.2767,2.2758,2.2758,2.2727,2.2726,0,0,0,0,0,0,0,0,0,0,0,2.276,2.276,2.2768,2.2767,2.2758,2.2758,2.2727,2.2726,0,0,0,0,0,0,0,0,0,0,0,2.2761,2.276,2.2759,2.2767,2.2758,2.2758,2.2727,2.274,0,0,0,0,0,0,0,0,0,0,2.2753,2.2736,2.276,2.2759,2.2767,2.2758,2.2758,2.2741,2.274,2.2723,0,2.2708,0,2.2717,2.2723,2.2723,0,0,0,2.2774,2.2738,2.2745,2.2759,2.2767,2.2758,2.2764,2.2741,2.2739,2.2721,2.2708,2.2707,2.2716,2.2723,2.2723,2.261,2.2609,0,0,2.2775,2.2753,2.2746,2.2743,2.2745,2.2764,2.2764,2.274,2.2723,2.2707,2.2706,2.2716,2.2723,2.2722,2.2611,2.261,0,0,0,2.2771,2.2753,2.2761,2.2744,2.2744,2.2764,2.2763,2.2724,2.2728,2.2706,2.2715,2.2722,2.2722,2.2612,2.2611,2.2547,0,0,0,2.2772,2.2751,2.276,2.2747,2.2744,2.2734,2.2747,2.273,2.2728,2.2715,2.2722,2.2721,2.2613,2.2611,2.2551,2.252,0,0,0,2.2764,2.275,2.2746,2.2746,2.2741,2.2735,2.2738,2.273,2.2733,2.2723,2.2721,2.2614,2.2612,2.2554,2.2526,2.2484,0,0,0,2.2749,2.2688,2.2744,2.268,2.2741,2.2697,2.2739,2.2706,2.269,2.2722,2.2613,2.2611,2.2556,2.2529,2.2487,2.2443,2.2423,0,0,2.266,2.2677,2.2641,2.2691,2.2631,2.27,2.263,2.2635,2.2654,2.2623,2.2621,2.255,2.2526,2.2484,2.2322,2.2306,0,0,0,2.2605,2.2579,2.2568,2.2552,2.2556,2.2557,2.2575,2.2577,2.2553,2.2634,2.2525,2.2511,2.2487,2.2467,2.2454,2.2434,2.2601,2.2601,2.2601,2.2446,2.2475,2.2417,2.2444,2.2429,2.245,2.2439,2.2445,2.2477,2.2451,2.2441,2.234,2.2315,2.2305,2.2285,2.2422,2.2422,2.2421,2.2421,2.2317,2.2284,2.233,2.229,2.2321,2.2287,2.2305,2.2329,2.2301,2.2349,2.2329,2.2378,2.2287,2.227,2.2417,2.2417,2.2418,2.2418,2.2419,2.2214,2.2204,2.2209,2.219,2.2172,2.2202,2.2174,2.2203,2.2229,2.221,2.2202,2.2204,2.2207,2.2205,2.2205,2.2204,2.2204,2.2204,2.2203,2.2105,2.2114,2.2087,2.2087,2.2082,2.2077,2.2099,2.2093,2.2094,2.2117,2.2117,2.2151,2.2274,2.2303,2.2198,2.2199,2.22,2.22,2.2201,2.1961,2.1999,2.1958,2.1952,2.1955,2.1935,2.1973,2.196,2.1959,2.1944,2.1983,2.207,2.2088,2.2099,2.2124,2.1978,2.1978,2.1978,2.1978,2.1873,2.1887,2.1852,2.1841,2.1833,2.1864,2.1815,2.1831,2.1853,2.1855,2.188,2.1916,2.1926,2.1938,2.1953,2.1976,2.1796,2.1796,2.1795,2.1786,2.18,2.1753,2.1778,2.1782,2.1785,2.174,2.1724,2.1757,2.1789,2.1856,2.1864,2.1921,2.1939,2.1969,2.1991,2.2034,0,0]}]]